[[{"header":{"parameterUnit":"m.s-1","parameterCategory":1,"la1":30.2991,"la2":30.254,"lo1":-89.0895,"lo2":-89.0444,"dy":0.0017,"dx":0.0017,"nx":28,"ny":28,"refTime":"2023-09-10T03:00:00:Z","depth":0,"parameterNumber":2,"parameterNumberName":"U-component_of_WINDS"},"data":[0,0,0,0,0,0,0,0,0,0,0,0,0,0,0,0,0,0,0,0,0,0,0,0,0,0,0,0,0,0,0,0,0,0,0,0,0,0,0,0,0,0,0,0,0,0,0,0,0,0,0,0,0,0,0,0,0,0,0.239,0.239,0,0.2366,0.2366,0.2365,0.2395,0.2396,0.2397,0.2398,0.2371,0.2369,0.2367,0,0,0,0,0,0,0,0,0,0,0,0,0,0.246,0.2459,0.239,0.239,0.2389,0.2366,0.2366,0.2365,0.2395,0.2396,0.2398,0.2399,0.2372,0.2369,0.2367,0,0,0,0,0,0,0,0,0,0,0,0,0,0.2432,0.2458,0.239,0.2401,0.2402,0.2366,0.2366,0.2365,0.2395,0.2396,0.2398,0.24,0.2372,0.237,0.2367,0.2317,0,0,0.2359,0.2358,0,0,0,0,0,0,0,0,0.2434,0.2429,0.24,0.2401,0.2401,0.2385,0.238,0.2349,0.2394,0.2397,0.2398,0.24,0.2374,0.2371,0.2363,0.2316,0.2315,0.2359,0.2357,0.2356,0.2355,0,0,0,0,0,0,0,0.2435,0.2431,0.238,0.24,0.24,0.2407,0.2405,0.2374,0.2377,0.2397,0.2399,0.2396,0.2375,0.2366,0.2363,0.2315,0.2359,0.2356,0.2355,0.2354,0.2226,0.2224,0,0,0,0,0,0,0.2436,0.2432,0.2381,0.238,0.2422,0.2405,0.2402,0.2389,0.2377,0.2377,0.2395,0.2398,0.2369,0.2366,0.2362,0.2302,0.2356,0.2354,0.2352,0.2227,0.2225,0.2223,0,0,0,0,0,0,0.2438,0.2432,0.2382,0.2406,0.2401,0.2402,0.2386,0.2387,0.2378,0.2375,0.2376,0.2385,0.2371,0.2366,0.2328,0.2302,0.2352,0.235,0.223,0.2227,0.2224,0.2183,0,0,0,0,0,0,0.244,0.2432,0.2413,0.2406,0.2399,0.2349,0.2385,0.2386,0.2374,0.2377,0.2366,0.2366,0.2371,0.2332,0.2326,0.2299,0.2348,0.2232,0.2228,0.2225,0.2186,0.2179,0.2173,0,0,0,0,0,0.2442,0.2402,0.2412,0.2406,0.2376,0.2348,0.2344,0.2352,0.2372,0.2352,0.2351,0.2366,0.2307,0.2328,0.2321,0.2293,0.2234,0.2229,0.2225,0.219,0.218,0.2173,0,0,0,0,0,0,0.2405,0.2401,0.2412,0.2369,0.2358,0.2353,0.2329,0.2342,0.2325,0.2328,0.2338,0.2336,0.2296,0.2291,0.2316,0.2245,0.2273,0.2267,0.2248,0.224,0.2233,0.2233,0.2346,0,0,0,0,0,0.2392,0.237,0.2368,0.2329,0.2324,0.2327,0.2315,0.2322,0.2312,0.2307,0.2303,0.2291,0.227,0.2255,0.2235,0.2187,0.2185,0.2165,0.2158,0.2152,0.2146,0.212,0.211,0.221,0.221,0.221,0,0,0.2364,0.2359,0.2344,0.2322,0.2314,0.229,0.2323,0.2296,0.2278,0.2303,0.2267,0.2264,0.2251,0.2208,0.2189,0.2203,0.2119,0.2147,0.2142,0.2139,0.2114,0.2105,0.2097,0.2207,0.2208,0.2208,0,0,0.23,0.2296,0.2263,0.2255,0.2245,0.2248,0.224,0.2233,0.2232,0.2197,0.2214,0.2193,0.2156,0.2147,0.2137,0.2072,0.2085,0.2066,0.2028,0.2002,0.1994,0.1987,0.1962,0.1954,0.206,0.206,0.206,0,0.2266,0.2232,0.2244,0.2216,0.2205,0.2228,0.2194,0.2187,0.2169,0.2161,0.2178,0.2132,0.2126,0.2081,0.2065,0.2057,0.2048,0.2065,0.1995,0.1988,0.1981,0.1958,0.1949,0.2058,0.2058,0.2058,0.2058,0,0.219,0.2166,0.2141,0.2125,0.2111,0.2081,0.2088,0.2073,0.2082,0.2083,0.2047,0.2041,0.202,0.201,0.2019,0.1966,0.1975,0.1993,0.2022,0.1969,0.1947,0.1938,0.2054,0.2055,0.2056,0.2056,0,0,0.2099,0.2092,0.2082,0.2075,0.2066,0.2047,0.2018,0.1999,0.1985,0.1974,0.1948,0.1918,0.1935,0.1924,0.1932,0.1909,0.1857,0.193,0.193,0.1915,0.1797,0.1782,0.1771,0.1867,0.1865,0.1864,0.1798,0,0.2034,0.1983,0.1994,0.1944,0.1922,0.1945,0.1919,0.1911,0.1912,0.1892,0.1893,0.187,0.1896,0.1889,0.1868,0.1867,0.1833,0.1873,0.1842,0.184,0.1841,0.176,0.1743,0.168,0.1789,0.1788,0.1787,0,0.195,0.1936,0.1884,0.1879,0.187,0.1847,0.183,0.1812,0.1803,0.1806,0.1794,0.1807,0.1778,0.1809,0.1768,0.1795,0.1784,0.1781,0.1779,0.1774,0.1808,0.175,0.1661,0.165,0.1774,0.1775,0.1776,0,0.1886,0.1855,0.182,0.1813,0.1807,0.179,0.1787,0.178,0.1768,0.1754,0.1746,0.1728,0.1718,0.1704,0.1711,0.1734,0.1668,0.17,0.1668,0.1667,0.165,0.165,0.1555,0.1647,0.1648,0.1648,0.1648,0,0.181,0.1777,0.1791,0.1768,0.1732,0.1746,0.1709,0.1709,0.1702,0.168,0.17,0.1678,0.1691,0.1671,0.1677,0.1641,0.1637,0.1637,0.1638,0.1633,0.1633,0.1623,0.1627,0.1645,0.1646,0.1646,0.1647,0,0.1731,0.1739,0.1702,0.17,0.1699,0.1672,0.167,0.1649,0.1653,0.1625,0.1619,0.1624,0.1602,0.1609,0.1584,0.1588,0.1542,0.1551,0.1545,0.1546,0.1512,0.1514,0.1404,0.139,0.1495,0.1494,0.1493,0,0.168,0.1655,0.1652,0.1639,0.1634,0.1613,0.1601,0.1615,0.1602,0.1591,0.1571,0.155,0.1534,0.1496,0.1497,0.1479,0.1485,0.1448,0.1482,0.1478,0.1482,0.1482,0.1479,0.144,0.1439,0.1438,0.1437,0,0.1589,0.1595,0.1577,0.1562,0.1547,0.1535,0.1525,0.1513,0.1526,0.151,0.1488,0.1475,0.1451,0.143,0.1413,0.1409,0.1424,0.1427,0.1418,0.1411,0.1408,0.1407,0.1523,0.1429,0.1429,0.143,0.1431,0.1431,0.1521,0.15,0.1494,0.1474,0.1468,0.1458,0.1439,0.1441,0.1423,0.1404,0.1414,0.1387,0.138,0.136,0.1354,0.1333,0.1347,0.1334,0.1331,0.1327,0.1321,0.1414,0.133,0.1331,0.1331,0.1331,0.1331,0,0.1428,0.1427,0.1408,0.1394,0.1378,0.1397,0.1387,0.1372,0.1349,0.1342,0.1326,0.13,0.128,0.1281,0.1262,0.1245,0.1252,0.124,0.1239,0.1238,0.1311,0.1319,0.1235,0.1235,0.1235,0.1235,0.1235,0.1235,0.1378,0.1343,0.1348,0.1311,0.1309,0.1284,0.1276,0.1267,0.1262,0.1232,0.1216,0.1217,0.1213,0.1195,0.1177,0.1178,0.1169,0.1153,0.1156,0.1223,0.1233,0.1242,0.125,0.1152,0.1152,0.1085,0.1084,0.1084]},{"header":{"parameterUnit":"m.s-1","parameterCategory":1,"la1":30.2991,"la2":30.254,"lo1":-89.0895,"lo2":-89.0444,"dy":0.0017,"dx":0.0017,"nx":28,"ny":28,"refTime":"2023-09-10T03:00:00:Z","depth":0,"parameterNumber":3,"parameterNumberName":"V-component_of_WINDS"},"data":[0,0,0,0,0,0,0,0,0,0,0,0,0,0,0,0,0,0,0,0,0,0,0,0,0,0,0,0,0,0,0,0,0,0,0,0,0,0,0,0,0,0,0,0,0,0,0,0,0,0,0,0,0,0,0,0,0,0,-4.0146,-4.0148,0,-4.0273,-4.0275,-4.0276,-4.0237,-4.0234,-4.0231,-4.0229,-4.0355,-4.036,-4.0366,0,0,0,0,0,0,0,0,0,0,0,0,0,-3.9866,-3.9871,-4.0146,-4.0148,-4.015,-4.0273,-4.0275,-4.0277,-4.0237,-4.0234,-4.0231,-4.0228,-4.0353,-4.036,-4.0367,0,0,0,0,0,0,0,0,0,0,0,0,0,-3.999,-3.9873,-4.0146,-4.0145,-4.0146,-4.0273,-4.0275,-4.0277,-4.0238,-4.0234,-4.023,-4.0226,-4.035,-4.0359,-4.0368,-4.0502,0,0,-4.0394,-4.0398,0,0,0,0,0,0,0,0,-3.9983,-4.0,-4.0143,-4.0145,-4.0147,-4.0235,-4.0222,-4.0352,-4.0239,-4.0203,-4.0229,-4.0224,-4.0318,-4.0329,-4.0362,-4.0508,-4.0513,-4.0395,-4.04,-4.0404,-4.0407,0,0,0,0,0,0,0,-3.9974,-3.9994,-4.0196,-4.0146,-4.0148,-4.0137,-4.015,-4.0247,-4.0281,-4.0206,-4.0203,-4.0219,-4.0318,-4.0353,-4.0364,-4.0515,-4.0395,-4.0403,-4.0408,-4.0411,-4.0778,-4.0782,0,0,0,0,0,0,-3.9965,-3.9988,-4.0192,-4.02,-4.0053,-4.0145,-4.016,-4.0211,-4.028,-4.0287,-4.0222,-4.0217,-4.034,-4.0354,-4.0368,-4.0531,-4.0404,-4.0412,-4.0417,-4.0773,-4.0779,-4.0784,0,0,0,0,0,0,-3.9959,-3.9984,-4.0187,-4.0093,-4.0118,-4.0154,-4.0212,-4.0215,-4.0251,-4.0293,-4.0298,-4.0252,-4.0338,-4.0356,-4.0469,-4.0534,-4.0416,-4.0424,-4.0768,-4.0775,-4.0781,-4.0856,0,0,0,0,0,0,-3.9951,-3.9982,-4.0034,-4.0095,-4.0124,-4.0288,-4.0216,-4.0221,-4.0266,-4.026,-4.0322,-4.0329,-4.0336,-4.0457,-4.0478,-4.0544,-4.0431,-4.0762,-4.0771,-4.0779,-4.0848,-4.0864,-4.0878,0,0,0,0,0,-3.9942,-4.0049,-4.0037,-4.0062,-4.019,-4.0291,-4.0308,-4.0315,-4.0272,-4.0324,-4.0351,-4.0327,-4.0524,-4.0468,-4.0492,-4.0562,-4.0758,-4.0769,-4.0778,-4.0841,-4.0861,-4.0878,0,0,0,0,0,0,-3.9994,-4.0057,-4.0044,-4.0175,-4.0228,-4.0284,-4.0351,-4.0336,-4.0402,-4.0393,-4.0398,-4.0412,-4.0529,-4.0556,-4.0494,-4.0696,-4.0634,-4.065,-4.0674,-4.0693,-4.0708,-4.0699,-4.0438,0,0,0,0,0,-4.0021,-4.0099,-4.015,-4.026,-4.0287,-4.0315,-4.0359,-4.036,-4.0415,-4.0437,-4.0472,-4.0525,-4.0599,-4.0647,-4.0718,-4.0851,-4.0864,-4.0911,-4.0926,-4.0939,-4.0952,-4.1025,-4.1047,-4.0817,-4.0817,-4.0816,0,0,-4.0077,-4.0121,-4.017,-4.0272,-4.0313,-4.0393,-4.0334,-4.0421,-4.048,-4.045,-4.0559,-4.0587,-4.0646,-4.0771,-4.0827,-4.0797,-4.1018,-4.0952,-4.0961,-4.0968,-4.1038,-4.1059,-4.1079,-4.0823,-4.0822,-4.0821,0,0,-4.022,-4.0261,-4.0358,-4.0401,-4.0465,-4.0483,-4.0506,-4.0565,-4.0583,-4.0693,-4.0672,-4.0742,-4.0869,-4.0913,-4.0951,-4.1111,-4.1091,-4.1134,-4.1214,-4.1285,-4.1303,-4.132,-4.1377,-4.1398,-4.1147,-4.1147,-4.1147,0,-4.0281,-4.0402,-4.0409,-4.0499,-4.0544,-4.0522,-4.062,-4.066,-4.0744,-4.0775,-4.0741,-4.09,-4.0939,-4.1073,-4.1112,-4.1144,-4.117,-4.1127,-4.1301,-4.1317,-4.1332,-4.1387,-4.1408,-4.1152,-4.1151,-4.1151,-4.115,0,-4.0474,-4.0559,-4.0629,-4.0712,-4.0765,-4.0858,-4.0878,-4.0931,-4.0927,-4.0948,-4.1061,-4.1106,-4.1185,-4.1217,-4.1214,-4.1351,-4.1331,-4.1299,-4.1237,-4.1359,-4.141,-4.1431,-4.1159,-4.1157,-4.1156,-4.1154,0,0,-4.0654,-4.074,-4.0766,-4.0804,-4.0873,-4.0937,-4.1029,-4.1108,-4.1153,-4.1211,-4.1288,-4.1396,-4.1367,-4.1411,-4.1413,-4.1475,-4.16,-4.1435,-4.1437,-4.1465,-4.1754,-4.1778,-4.1803,-4.1587,-4.1591,-4.1594,-4.1749,0,-4.0803,-4.0966,-4.0976,-4.1123,-4.1201,-4.1181,-4.1261,-4.1311,-4.1333,-4.1401,-4.1425,-4.1502,-4.1458,-4.1484,-4.1545,-4.1572,-4.1658,-4.1561,-4.1658,-4.1661,-4.1644,-4.1829,-4.1855,-4.2,-4.1769,-4.1773,-4.1775,0,-4.0999,-4.1066,-4.1221,-4.128,-4.1313,-4.1385,-4.1458,-4.1524,-4.1581,-4.1592,-4.1642,-4.1635,-4.1727,-4.1663,-4.1791,-4.1724,-4.1764,-4.1783,-4.1789,-4.1799,-4.1726,-4.1844,-4.2046,-4.2067,-4.1807,-4.1805,-4.1802,0,-4.1115,-4.1243,-4.1353,-4.1385,-4.1457,-4.1508,-4.1539,-4.1592,-4.1639,-4.1703,-4.1733,-4.1807,-4.1847,-4.1903,-4.1915,-4.1867,-4.2043,-4.1979,-4.2055,-4.2055,-4.2093,-4.2091,-4.2304,-4.2118,-4.2118,-4.2118,-4.2117,0,-4.1282,-4.1378,-4.1406,-4.1474,-4.1581,-4.159,-4.1695,-4.1723,-4.177,-4.1842,-4.1828,-4.1896,-4.1908,-4.1978,-4.1988,-4.2093,-4.211,-4.2122,-4.2123,-4.2124,-4.2122,-4.215,-4.214,-4.2123,-4.2122,-4.2121,-4.212,0,-4.1429,-4.1452,-4.1571,-4.1629,-4.1646,-4.1722,-4.1771,-4.1836,-4.1856,-4.1947,-4.1969,-4.2001,-4.2082,-4.21,-4.2197,-4.2203,-4.2328,-4.2319,-4.2309,-4.2309,-4.2383,-4.2376,-4.2623,-4.2655,-4.2448,-4.245,-4.2451,0,-4.1534,-4.1608,-4.1674,-4.1723,-4.1757,-4.1834,-4.1883,-4.1895,-4.1945,-4.2016,-4.2072,-4.2152,-4.2217,-4.2348,-4.2379,-4.2453,-4.2446,-4.2527,-4.2457,-4.2455,-4.2448,-4.2444,-4.2451,-4.2541,-4.2543,-4.2545,-4.2546,0,-4.1718,-4.1726,-4.1797,-4.1873,-4.1932,-4.1991,-4.2048,-4.2088,-4.2107,-4.2164,-4.2249,-4.2299,-4.2399,-4.2479,-4.2553,-4.2584,-4.2569,-4.2568,-4.259,-4.2591,-4.2582,-4.2588,-4.2346,-4.2563,-4.2561,-4.256,-4.2559,-4.2558,-4.1847,-4.1912,-4.197,-4.205,-4.2094,-4.2148,-4.2211,-4.224,-4.2311,-4.2394,-4.2396,-4.2488,-4.2543,-4.2641,-4.2677,-4.2748,-4.2722,-4.2753,-4.2761,-4.2769,-4.2776,-4.2571,-4.2761,-4.2761,-4.276,-4.276,-4.276,0,-4.2031,-4.2067,-4.2141,-4.2221,-4.2284,-4.2266,-4.2328,-4.2381,-4.2463,-4.2516,-4.258,-4.2677,-4.2755,-4.2792,-4.2869,-4.2918,-4.2913,-4.2938,-4.2935,-4.2942,-4.2794,-4.2768,-4.2941,-4.2941,-4.2941,-4.2941,-4.2941,-4.2941,-4.2134,-4.2243,-4.2258,-4.2388,-4.2423,-4.2515,-4.2552,-4.2601,-4.2643,-4.2753,-4.2818,-4.2842,-4.2888,-4.2968,-4.3038,-4.3047,-4.3076,-4.3105,-4.311,-4.2971,-4.2953,-4.2935,-4.2911,-4.3111,-4.3111,-4.3252,-4.3254,-4.3255]}]]